+ View the NASA Portal
+ Center for Near-Earth Object Studies
IMPORTANT:
The SSD Announcement email list is now available. Major changes are coming in the near future, including possible hostname and/or URL changes. To be notified of such changes, subscribe to this email list.
Please visit
this page
for more details.
Don't show this message again
JPL Small-Body Database Browser
Search:
[
help
]
452411 (2002 TW6)
Classification:
Main-belt Asteroid
SPK-ID:
2452411
[
Ephemeris
|
Orbit Diagram
|
Orbital Elements
|
Mission Design
|
Physical Parameters
|
Discovery Circumstances
]
[ show orbit diagram ]
Orbital Elements at Epoch 2458600.5 (2019-Apr-27.0) TDB
Reference:
JPL 13
(heliocentric ecliptic J2000)
Element
Value
Uncertainty (1-sigma)
Units
e
.1897616714044675
7.1006e-08
a
2.624809579844932
1.708e-08
au
q
2.1267213268551
1.8974e-07
au
i
13.13721008831204
7.5685e-06
deg
node
187.8892678649604
2.6161e-05
deg
peri
214.5317633460794
3.2195e-05
deg
M
302.5912315156775
1.4835e-05
deg
t
p
2458848.197064872998
(2019-Dec-30.69706487)
6.4554e-05
TDB
period
1553.263477139921
4.25
1.5161e-05
4.151e-08
d
yr
n
.2317700797696478
2.2623e-09
deg/d
Q
3.122897832834765
2.0321e-08
au
Orbit Determination Parameters
# obs. used (total)
199
data-arc span
6236 days (17.07 yr)
first obs. used
2002-10-01
last obs. used
2019-10-28
planetary ephem.
DE431
SB-pert. ephem.
SB431-N16
condition code
0
norm. resid. RMS
.56919
source
ORB
producer
Otto Matic
solution date
2019-Nov-08 16:48:52
Additional Information
Earth MOID
= 1.14567 au
Jupiter MOID
= 2.34544 au
T_jup
= 3.341
[ show covariance matrix ]
[
Ephemeris
|
Orbit Diagram
|
Orbital Elements
|
Mission Design
|
Physical Parameters
|
Discovery Circumstances
]
Physical Parameter Table
Parameter
Symbol
Value
Units
Sigma
Reference
Notes
absolute magnitude
H
17.0
n/a
MPO413517
452411 (2002 TW6)
Discovered 2002-Oct-01 by LONEOS at Anderson Mesa
Reference:
Last Updated:
2016-01-04
[
Ephemeris
|
Orbit Diagram
|
Orbital Elements
|
Mission Design
|
Physical Parameters
|
Discovery Circumstances
]
2019-Dec-06 00:58 UT
(server date/time)
Site Manager:
Ryan S. Park
Webmaster
:
Alan B. Chamberlin